Regional Weather Roundup
Issued by NWS

Home | Current Version | Previous Version | Text Only | Print | Product List | Glossary On
Versions: 1 2 3 4 5 6 7 8 9 10 11 12 13 14 15 16 17 18 19 20 21 22 23 24 25 26 27 28 29 30 31 32 33 34 35 36 37 38 39 40 41 42 43 44 45 46 47 48 49 50
000
ASUS43 KLMK 281410
RWRKY
KENTUCKY REGIONAL WEATHER ROUNDUP
NATIONAL WEATHER SERVICE LOUISVILLE KY
900 AM EST SAT FEB 28 2015

NOTE "FAIR" INDICATES FEW OR NO CLOUDS BELOW 12,000 FEET
WITH NO SIGNIFICANT WEATHER AND/OR OBSTRUCTIONS TO VISIBILITY.

KYZ001>023-026-027-061>063-070>075-281500-
WESTERN AND SOUTH CENTRAL KENTUCKY

CITY           SKY/WX    TMP DP  RH WIND       PRES   REMARKS
PADUCAH        CLOUDY    22  10  60 NE10      30.63S WCI  11
HENDERSON      CLOUDY    21   9  58 E9        30.67S WCI  11
OWENSBORO      MOSUNNY   22   8  54 E9        30.68R WCI  12
HOPKINSVILLE   PTSUNNY   24  11  59 NE9       30.62R WCI  14
BOWLING GREEN  CLOUDY    24  11  57 NE9       30.65R WCI  14
GLASGOW        PTSUNNY   23  11  61 E9        30.63R WCI  13
$$

KYZ024-025-028>034-038-045-046-053-281500-
NORTH CENTRAL KENTUCKY

CITY           SKY/WX    TMP DP  RH WIND       PRES   REMARKS
LOUISVILLE/SDF CLOUDY    20   6  55 E8        30.70R WCI  10
LOUISVILLE/LOU CLOUDY    19   5  54 E6        30.70S WCI  11
FORT KNOX      CLOUDY    19   6  58 NE8       30.64S WCI   9
$$

KYZ035>037-039>044-047>052-055>060-089>105-281500-
NORTHEAST KENTUCKY

CITY           SKY/WX    TMP DP  RH WIND       PRES   REMARKS
LEXINGTON      CLOUDY    19   6  57 E12       30.67R WCI   7
COVINGTON      CLOUDY    15   1  53 E9        30.71R WCI   3
FRANKFORT        N/A     18   5  57 NE8       30.68R WCI   8
$$

KYZ054-064>069-076>088-106>120-281500-
SOUTHEAST KENTUCKY

CITY           SKY/WX    TMP DP  RH WIND       PRES   REMARKS
JACKSON        PTSUNNY   20   8  60 VRB3      30.62R
LONDON         PTSUNNY   25   8  48 NE7       30.61R WCI  17
SOMERSET       MOSUNNY   23  10  58 NE5       30.65R WCI  17
MIDDLESBORO    MOSUNNY   22  15  72 CALM      30.61R
MONTICELLO     CLOUDY    24  12  60 NE8       30.65R WCI  15
$$




USA.gov is the U.S. government's official web portal to all federal, state and local government web resources and services.